Weather Roundup
Issued by NWS

Home | Current Version | Previous Version | Text Only | Print | Product List | Glossary On
Versions: 1 2 3 4 5 6 7 8 9 10 11 12 13 14 15 16 17 18 19 20 21 22 23 24 25 26 27 28 29 30 31 32 33 34 35 36 37 38 39 40 41 42 43 44 45 46 47 48 49 50
188
NZUS93 KARX 172310
HRRWXR

CURRENT HOURLY OBSERVATIONS ACROSS
MUCH OF THE UPPER MISSISSIPPI VALLEY
NATIONAL WEATHER SERVICE LA CROSSE WI
500 PM CST SUN DEC 17 2017


...SOUTHEAST MINNESOTA...


CITY           SKY/WX    TMP DP  RH WIND       PRES   REMARKS
ROCHESTER      CLOUDY    28  27  96 CALM      29.96R
ROCHESTER/MAYO CLOUDY    29  29 100 SE3       29.96S
WINONA         CLOUDY    32  28  86 CALM      29.99S
AUSTIN         CLOUDY    28  27  93 CALM      29.96R
ALBERT LEA     CLOUDY    28  27  93 CALM      29.95F FOG
DODGE CENTER   CLOUDY    27  27 100 CALM      29.95S FOG
PRESTON        CLOUDY    28  27  96 CALM      29.96S FOG
OWATONNA       CLOUDY    27  27 100 CALM      29.96R FOG
FARIBAULT      CLOUDY    27  25  93 CALM      29.98R FOG
$$

...ELSEWHERE IN MINNESOTA...


CITY           SKY/WX    TMP DP  RH WIND       PRES   REMARKS
MINNEAPOLIS    CLOUDY    28  24  85 CALM      29.97F FOG
INTNL FALLS    CLEAR     22  18  85 SW6       29.85F WCI  14
DULUTH         CLOUDY    24  21  88 W5        29.92F WCI  18
RED WING       CLOUDY    27  25  93 CALM      29.97S FOG
REDWOOD FALLS  CLOUDY    30  24  78 CALM      29.96S
MANKATO        CLOUDY    24  22  91 E3        29.98R FOG
WORTHINGTON    CLEAR     27  24  89 SE5       29.94S WCI  22
FAIRMONT       CLOUDY    30  24  78 E3        29.97R
$$

...SOUTHWEST WISCONSIN...


CITY           SKY/WX    TMP DP  RH WIND       PRES   REMARKS
LA CROSSE      LGT SNOW  32  29  88 CALM      29.99R FOG
PRAIRIE DU CHI CLOUDY    33  28  82 CALM      29.99R
BOSCOBEL       CLOUDY    35  29  78 CALM      29.99S
LONE ROCK      CLOUDY    34  30  85 E3        29.98F FOG
PLATTEVILLE    CLOUDY    35  32  90 CALM      29.97R
FORT MC COY    CLOUDY    31  28  92 CALM      29.99R FOG
CAMP DOUGLAS   CLOUDY    31  29  91 CALM      29.97S
MAUSTON-NEW LI CLOUDY    32  29  90 CALM      29.96F FOG
VIROQUA        CLOUDY    30  30 100 CALM      29.96R
WIS DELLS      CLOUDY    31  29  91 E3        29.96F FOG
$$

...ELSEWHERE IN WISCONSIN...


CITY           SKY/WX    TMP DP  RH WIND       PRES   REMARKS
MILWAUKEE      CLOUDY    36  33  89 CALM      29.97F FOG
MADISON        CLOUDY    33  29  85 E5        29.98F FOG     WCI  29
GREEN BAY      CLOUDY    31  27  85 E3        29.99F
EAU CLAIRE     CLOUDY    28  26  92 CALM      29.96F
BLACK RVR FLS  CLOUDY    31  26  83 CALM      29.97S
MEDFORD        CLOUDY    26  24  96 CALM      29.93F FOG
WAUSAU         CLOUDY    27  25  92 CALM      29.94F
WIS RAPIDS     CLOUDY    29  27  92 NE5       29.98S FOG     WCI  24
MARSHFIELD     CLOUDY    27  26  96 E3        29.94F FOG
RICE LAKE      CLOUDY    28  27  96 CALM      29.96F FOG
$$

...NORTHEAST IOWA...


CITY           SKY/WX    TMP DP  RH WIND       PRES   REMARKS
WATERLOO       CLOUDY    35  29  78 CALM      29.97R HAZE
DUBUQUE        CLOUDY    34  30  85 CALM      29.96R FOG
DECORAH        CLOUDY    32  30  93 CALM      29.95S FOG
MASON CITY     CLOUDY    28  27  96 CALM      29.97S FOG
CHARLES CITY   NOT AVBL
OELWEIN        CLOUDY    34  34 100 NE6       29.96R FOG     WCI  29
$$

...ELSEWHERE IN IOWA...


CITY           SKY/WX    TMP DP  RH WIND       PRES   REMARKS
DES MOINES     CLOUDY    37  31  78 S5        29.97R WCI  33
IOWA CITY      CLOUDY    39  35  86 CALM      30.00R
FORT DODGE     CLOUDY    31  28  89 N3        29.96F FOG
MARSHALLTOWN   CLOUDY    36  31  82 NE6       29.95R WCI  31
CEDAR RAPIDS   LGT RAIN  37  30  75 CALM      29.97R
$$

...NORTHERN ILLINOIS...


CITY           SKY/WX    TMP DP  RH WIND       PRES   REMARKS
CHICAGO-OHARE  CLOUDY    40  31  70 CALM      29.97S
CHICAGO-MIDWAY CLOUDY    44  32  62 CALM      29.98S
MOLINE         LGT RAIN  42  35  76 CALM      29.98R
ROCKFORD       CLOUDY    34  30  85 CALM      29.99F
PEORIA         CLOUDY    46  43  89 S6        29.99F
$$

NOTE: "FAIR" INDICATES FEW OR NO CLOUDS BELOW 12,000 FEET WITH NO
SIGNIFICANT WEATHER AND/OR OBSTRUCTIONS TO VISIBILITY. WIND
SPEEDS ARE IN MILES-PER-HOUR.




USA.gov is the U.S. government's official web portal to all federal, state and local government web resources and services.